Overview Statistics Trail Chart Weather Telemetry Raw packets
 

This is the latest recevied weather packets stored in our database for station/object WX5II-11. If no packets are shown the sender has not sent any weather packets the latest 10 day(s).

<< 4 5 6 7 8 9 >>
Time Temp. Humidity Pressure Rain* Wind** Luminosity Snow
1787932555 33.33° C 51% 1008.8 hPa 0 mm - - -
1787926551 30.56° C 65% 1008.4 hPa 0 mm - - -
1787923547 27.22° C 73% 1008.1 hPa 0 mm - - -
1787922946 27.22° C 73% 1007.7 hPa 0 mm - - -
1787922344 26.67° C 75% 1008.1 hPa 0 mm - - -
1787919943 25.56° C 77% 1007.7 hPa 0 mm - - -
1787919341 25.56° C 76% 1007.7 hPa 0 mm - - -
1787918143 25.56° C 76% 1007.4 hPa 0 mm - - -
1787917541 25.56° C 76% 1007.4 hPa 0 mm - - -
1787915139 26.11° C 76% 1007.1 hPa 0 mm - - -
1787914537 26.11° C 76% 1007.1 hPa 0 mm - - -
1787913937 26.11° C 76% 1006.7 hPa 0 mm - - -
1787910334 26.67° C 77% 1006.4 hPa 0 mm - - -
1787898922 27.78° C 63% 1006.7 hPa 0 mm - - -
1787898322 27.78° C 63% 1006.4 hPa 0 mm - - -
1787896520 27.78° C 60% 1006.4 hPa 0 mm - - -
1787894117 27.78° C 59% 1006.7 hPa 0 mm - - -
1787893519 27.78° C 57% 1006.7 hPa 0 mm - - -
1787889314 29.44° C 52% 1007.1 hPa 0 mm - - -
1787887515 30.56° C 51% 1007.4 hPa 0 mm - - -
1787880906 32.78° C 43% 1003.7 hPa 0 mm - - -
1787848479 35° C 49% 1007.1 hPa 0 mm - - -
1787845472 32.78° C 58% 1007.1 hPa 0 mm - - -
1787843671 31.67° C 60% 1007.1 hPa 0 mm - - -
1787843069 31.67° C 62% 1007.1 hPa 0 mm - - -

* Rain latest hour (hover to see other rain measurements)
** Current wind speed in m/s (hover to see current wind gust speed)